SL-16 DEB

Satellite information

Favourite Embed

Satellite Type and Status

DEBRISIN ORBIT

Key statistics

Satellite SL-16 DEB at a glance.

Uptime

11732

Days in orbit

Revolutions

≈ 14.1

Per day

Orbit

LEO

Low Earth Orbit

Inclination

70.7

Latest

Satellite identification and parameters

Extended collection of information and parameters for SL-16 DEB.

Object identification

Identified? True

Debris? True

Object name: SL-16 DEB

International designator: 1993-016AP

Object number (NORAD): 29100

Object ID (CCSDS): 29100

Country: COMMONWEALTH OF INDEPENDENT STATES (CIS)

Current information (Y/N): Y

RCS size: SMALL

Orbital parameters

Period: 102.018 minutes

Inclination: 70.7238 deg

SMA: 7232.326 km

Apoapsis: 907.186 km

Periapsis: 801.196 km

RAAN: 214.0303 deg

Eccentricy: 0.0073275

Argument of periapsis: 311.6738 deg

Mean anomaly: 47.8123 deg

Mean motion: 14.1151598 rev/day

Mean motion (dot): 0.00001182 rev/day2

B* drag term: 0.00066202 1/REarth

Two-line elements (TLE)

Creation date: May 7, 2025, 3:14 a.m.

Reference frame: TEME

Reference center: EARTH

Epoch: May 6, 2025, 3:15 p.m. UTC

TLE line 0: 0 SL-16 DEB

TLE line 1: 1 29100U 93016AP 25126.63544759 .00001182 00000-0 66202-3 0 9991

TLE line 2: 2 29100 70.7238 214.0303 0073275 311.6738 47.8123 14.11515980174032

Live tracking on map

Real-time ground track for satellite SL-16 DEB.

In-orbit conjunctions

A list of the most updated potential collisions computed for object SL-16 DEB.

Target Orbit TCA Probability of collision Miss distance Type
FENGYUN 1C DEB SSO 2024-11-14 16:56:13 0.0001635352 937.0 (m) DEBRIS
FENGYUN 1C DEB SSO 2024-11-10 15:46:33 0.0001371977 648.0 (m) DEBRIS
FENGYUN 1C DEB SSO 2024-08-21 20:14:24 0.0001988608 104.0 (m) DEBRIS

Associated space launch

Second generation ELING satellite

SL-16 DEB was lifted into orbit during the mission ‘Zenit-2 | Tselina-2 13’, on board a Zenit-2 space rocket.

The launch took place on March 26, 1993, 2:21 a.m. from 45/1.

For more information about the launch, click the button.

Launch to space Zenit-2 | Tselina-2 13
Zenit-2 | Tselina-2 13

Agency: N/A

Status: Launch Successful

Launch date: March 26, 1993, 2:21 a.m. UTC

Rocket: Zenit-2

Launch pad: 45/1

Location: Baikonur Cosmodrome, Republic of Kazakhstan

...

Latest news about this satellite

There are no fresh news available about this satellite. Check back as we update our databases every day.


Newsletter sign-up

Weekly statistics, charts and insights to help you stay on top of the space industry.